QPF
0.00 0.00 0.00 0.00 0.00 0.00 0.00 0.00 0.00 0.00 0.00 0.00 0.00 0.00 0.00 0.00 0.00 0.00 0.00 0.00 0.00 0.00 0.00 0.00 0.00 0.00 0.00 0.00 0.00 0.00 0.00 0.00 0.00 0.00 0.00 0.00 0.00 0.00 0.00 0.00 0.00 0.00
0.00 0.00 0.00 0.00 0.00 0.00 0.00 0.00 0.00 0.00 0.00 0.00 0.00 0.00 0.00 0.00 0.00 0.00 0.00 0.00 0.00 0.00 0.00 0.00 0.00 0.00 0.00 0.00 0.00 0.00 0.00 0.00 0.00 0.00 0.00 0.00 0.00 0.00 0.00 0.00 0.00 0.00
0.00 0.00 0.00 0.00 0.00 0.00 0.00 0.00 0.00 0.00 0.00 0.00 0.00 0.00 0.00 0.00 0.00 0.00 0.00 0.00 0.00 0.00 0.00 0.00 0.00 0.00 0.00 0.00 0.00 0.00 0.00 0.00 0.00 0.00 0.00 0.00 0.00 0.00 0.00 0.00 0.00 0.00
0.00 0.00 0.00 0.00 0.00 0.00 0.00 0.00 0.00 0.00 0.00 0.00 0.00 0.00 0.00 0.00 0.00 0.00 0.00 0.00 0.00 0.00 0.00 0.00 0.00 0.00 0.00 0.00 0.00 0.00 0.00 0.00 0.00 0.00 0.00 0.00 0.00 0.00 0.00 0.00 0.00 0.00
0.00 0.00 0.00 0.00 0.00 0.00 0.00 0.00 0.00 0.00 0.00 0.00 0.00 0.00 0.00 0.00 0.00 0.00 0.00 0.00 0.00 0.00 0.00 0.00 0.00 0.00 0.00 0.00 0.00 0.00 0.00 0.00 0.00 0.00 0.00 0.00 0.00 0.00 0.00 0.00 0.00 0.00
0.00 0.00 0.00 0.00 0.00 0.00 0.00 0.00 0.00 0.00 0.00 0.00 0.00 0.00 0.00 0.00 0.00 0.00 0.00 0.00 0.00 0.00 0.00 0.00 0.00 0.00 0.00 0.00 0.00 0.00 0.00 0.00 0.00 0.00 0.00 0.00 0.00 0.00 0.00 0.00 0.00 0.00
0.00 0.00 0.00 0.00 0.00 0.00 0.00 0.00 0.00 0.00 0.00 0.00 0.00 0.00 0.00 0.00 0.00 0.00 0.00 0.00 0.00 0.00 0.00 0.00 0.00 0.00 0.00 0.00 0.00 0.00 0.00 0.00 0.00 0.00 0.00 0.00 0.00 0.00 0.00 0.00 0.00 0.00
0.00 0.00 0.00 0.00 0.00 0.00 0.00 0.00 0.00 0.00 0.00 0.00 0.00 0.00 0.00 0.00 0.00 0.00 0.00 0.00 0.00 0.00 0.00 0.00 0.00 0.00 0.00 0.00 0.00 0.00 0.00 0.00 0.00 0.00 0.00 0.00 0.00 0.00 0.00 0.00 0.00 0.00
0.00 0.00 0.00 0.00 0.00 0.00 0.00 0.00 0.00 0.00 0.00 0.00 0.00 0.00 0.00 0.00 0.00 0.00 0.00 0.00 0.00 0.00 0.00 0.00 0.00 0.00 0.00 0.00 0.00 0.00 0.00 0.00 0.00 0.00 0.00 0.00 0.00 0.00 0.00 0.00 0.00 0.00
0.00 0.00 0.00 0.00 0.00 0.00 0.00 0.00 0.00 0.00 0.00 0.00 0.00 0.00 0.00 0.00 0.00 0.00 0.00 0.00 0.00 0.00 0.00 0.00 0.00 0.00 0.00 0.00 0.00 0.00 0.00 0.00 0.00 0.00 0.00 0.00 0.00 0.00 0.00 0.00 0.00 0.00
0.00 0.00 0.00 0.00 0.00 0.00 0.00 0.00 0.00 0.00 0.00 0.00 0.00 0.00 0.00 0.00 0.00 0.00 0.00 0.00 0.00 0.00 0.00 0.00 0.00 0.00 0.00 0.00 0.00 0.00 0.00 0.00 0.00 0.00 0.00 0.00 0.00 0.00 0.00 0.00 0.00 0.00
0.00 0.00 0.00 0.00 0.00 0.00 0.00 0.00 0.00 0.00 0.00 0.00 0.00 0.00 0.00 0.00 0.00 0.00 0.00 0.00 0.00 0.00 0.00 0.00 0.00 0.00 0.00 0.00 0.00 0.00 0.00 0.00 0.00 0.00 0.00 0.00 0.00 0.00 0.00 0.00 0.00 0.00
0.00 0.00 0.00 0.00 0.00 0.00 0.00 0.00 0.00 0.00 0.00 0.00 0.00 0.00 0.00 0.00 0.00 0.00 0.00 0.00 0.00 0.00 0.00 0.00 0.00 0.00 0.00 0.00 0.00 0.00 0.00 0.00 0.00 0.00 0.00 0.00 0.00 0.00 0.00 0.00 0.00 0.00
0.00 0.00 0.00 0.00 0.00 0.00 0.00 0.00 0.00 0.00 0.00 0.00 0.00 0.00 0.00 0.00 0.00 0.00 0.00 0.00 0.00 0.00 0.00 0.00 0.00 0.00 0.00 0.00 0.00 0.00 0.00 0.00 0.00 0.00 0.00 0.00 0.00 0.00 0.00 0.00 0.00 0.00
0.00 0.00 0.00 0.00 0.00 0.00 0.00 0.00 0.00 0.00 0.00 0.00 0.00 0.00 0.00 0.00 0.00 0.00 0.00 0.00 0.00 0.00 0.00 0.00 0.00 0.00 0.00 0.00 0.00 0.00 0.00 0.00 0.00 0.00 0.00 0.00 0.00 0.00 0.00 0.00 0.00 0.00
0.00 0.00 0.00 0.00 0.00 0.00 0.00 0.00 0.00 0.00 0.00 0.00 0.00 0.00 0.00 0.00 0.00 0.00 0.00 0.00 0.00 0.00 0.00 0.00 0.00 0.00 0.00 0.00 0.00 0.00 0.00 0.00 0.00 0.00 0.00 0.00 0.00 0.00 0.00 0.00 0.00 0.00
0.00 0.00 0.00 0.00 0.00 0.00 0.00 0.00 0.00 0.00 0.00 0.00 0.00 0.00 0.00 0.00 0.00 0.00 0.00 0.00 0.00 0.00 0.00 0.00 0.00 0.00 0.00 0.00 0.00 0.00 0.00 0.00 0.00 0.00 0.00 0.00 0.00 0.00 0.00 0.00 0.00 0.00
0.00 0.00 0.00 0.00 0.00 0.00 0.00 0.00 0.00 0.00 0.00 0.00 0.00 0.00 0.00 0.00 0.00 0.00 0.00 0.00 0.00 0.00 0.00 0.00 0.00 0.00 0.00 0.00 0.00 0.00 0.00 0.00 0.00 0.00 0.00 0.00 0.00 0.00 0.00 0.00 0.00 0.00
0.00 0.00 0.00 0.00 0.00 0.00 0.00 0.00 0.00 0.00 0.00 0.00 0.00 0.00 0.00 0.00 0.00 0.00 0.00 0.00 0.00 0.00 0.00 0.00 0.00 0.00 0.00 0.00 0.00 0.00 0.00 0.00 0.00 0.00 0.00 0.00 0.00 0.00 0.00 0.00 0.00 0.00
0.00 0.00 0.00 0.00 0.00 0.00 0.00 0.00 0.00 0.00 0.00 0.00 0.00 0.00 0.00 0.00 0.00 0.00 0.00 0.00 0.00 0.00 0.00 0.00 0.00 0.00 0.00 0.00 0.00 0.00 0.00 0.00 0.00 0.00 0.00 0.00 0.00 0.00 0.00 0.00 0.00 0.00
0.00 0.00 0.00 0.00 0.00 0.00 0.00 0.00 0.00 0.00 0.00 0.00 0.00 0.00 0.00 0.00 0.00 0.00 0.00 0.00 0.00 0.00 0.00 0.00 0.00 0.00 0.00 0.00 0.00 0.00 0.00 0.00 0.00 0.00 0.00 0.00 0.00 0.00 0.00 0.03 0.00 0.00
0.00 0.00 0.00 0.00 0.00 0.00 0.00 0.00 0.00 0.00 0.00 0.00 0.00 0.00 0.00 0.00 0.00 0.00 0.00 0.00 0.00 0.00 0.00 0.00 0.00 0.00 0.00 0.00 0.00 0.00 0.00 0.00 0.00 0.00 0.00 0.00 0.00 0.00 0.00 0.00 0.00 0.00
0.00 0.00 0.00 0.00 0.00 0.00 0.00 0.00 0.00 0.00 0.00 0.00 0.00 0.00 0.00 0.00 0.00 0.00 0.00 0.00 0.00 0.00 0.00 0.00 0.00 0.00 0.00 0.00 0.00 0.00 0.00 0.00 0.00 0.00 0.00 0.00 0.00 0.00 0.00 0.00 0.00 0.00
0.00 0.00 0.00 0.00 0.00 0.00 0.00 0.00 0.00 0.00 0.00 0.00 0.00 0.00 0.00 0.00 0.00 0.00 0.00 0.00 0.00 0.00 0.00 0.00 0.00 0.00 0.02 0.01 0.00 0.01 0.00 0.00 0.00 0.00 0.00 0.00 0.00 0.00 0.00 0.00 0.00 0.00
0.00 0.00 0.00 0.00 0.00 0.00 0.00 0.00 0.00 0.00 0.00 0.00 0.00 0.00 0.02 0.02 0.01 0.00 0.01 0.00 0.00 0.00 0.00 0.00 0.00 0.00 0.03 0.00 0.00 0.00 0.01 0.00 0.00 0.00 0.00 0.00 0.00 0.00 0.00 0.00 0.00 0.00
0.00 0.00 0.00 0.00 0.00 0.00 0.00 0.00 0.00 0.00 0.00 0.00 0.00 0.00 0.00 0.00 0.00 0.04 0.04 0.04 0.02 0.00 0.02 0.00 0.00 0.00 0.01 0.01 0.00 0.01 0.01 0.00 0.01 0.00 0.00 0.00 0.00 0.01 0.00 0.00 0.01 0.00
MSLP
1011.90 1011.94 1011.86 1011.90 1011.94 1011.90 1011.86 1011.86 1011.82 1011.86 1012.06 1012.30 1012.34 1012.46 1012.62 1012.82 1013.38 1013.78 1013.94 1014.34 1014.70 1015.02 1015.22 1015.42 1015.62 1015.86 1016.14 1016.54 1016.98 1017.46 1017.86 1018.18 1018.58 1018.94 1019.34 1019.66 1019.82 1020.06 1020.30 1020.50 1020.66 1020.62
1011.94 1012.10 1012.18 1012.22 1012.18 1012.22 1012.26 1012.34 1012.26 1012.06 1011.90 1011.90 1011.98 1012.22 1012.58 1012.98 1013.18 1013.54 1013.82 1014.06 1014.38 1014.62 1014.98 1015.34 1015.62 1015.82 1015.98 1016.18 1016.50 1016.86 1017.30 1017.70 1017.94 1018.38 1018.74 1019.06 1019.22 1019.62 1019.70 1019.98 1020.18 1020.58
1011.90 1011.94 1011.98 1012.02 1012.10 1012.26 1012.34 1012.46 1012.50 1012.42 1012.26 1012.10 1012.10 1012.14 1012.34 1012.66 1013.06 1013.38 1013.70 1013.94 1014.14 1014.42 1014.78 1015.14 1015.54 1015.78 1016.02 1016.22 1016.42 1016.54 1016.70 1017.02 1017.30 1017.82 1018.10 1018.34 1018.70 1019.02 1019.22 1019.70 1019.98 1020.26
1011.70 1011.78 1011.86 1011.94 1012.02 1012.02 1012.14 1012.26 1012.30 1012.30 1012.30 1012.34 1012.26 1012.18 1012.14 1012.30 1012.66 1013.10 1013.42 1013.74 1013.94 1014.26 1014.58 1014.98 1015.22 1015.58 1015.78 1015.98 1016.26 1016.34 1016.42 1016.62 1016.70 1017.26 1017.58 1017.94 1018.26 1018.46 1018.86 1019.30 1019.62 1020.06
1011.70 1011.70 1011.78 1011.86 1011.90 1011.94 1011.98 1011.98 1011.90 1011.86 1011.86 1011.78 1011.94 1012.14 1012.34 1012.42 1012.50 1012.82 1013.18 1013.46 1013.66 1013.94 1014.22 1014.50 1014.90 1015.18 1015.46 1015.66 1015.82 1015.98 1016.22 1016.46 1016.82 1017.14 1017.30 1017.54 1017.90 1018.18 1018.54 1018.90 1019.22 1019.54
1011.58 1011.54 1011.50 1011.54 1011.58 1011.70 1011.78 1011.74 1011.58 1011.50 1011.38 1011.42 1011.30 1011.54 1011.74 1012.10 1012.38 1012.42 1012.54 1012.94 1013.26 1013.50 1013.74 1014.06 1014.34 1014.62 1014.98 1015.26 1015.58 1015.58 1015.74 1016.06 1016.42 1016.86 1017.02 1017.22 1017.74 1018.10 1018.30 1018.54 1018.74 1019.02
1011.50 1011.38 1011.22 1011.26 1011.30 1011.42 1011.50 1011.50 1011.50 1011.42 1011.26 1011.06 1011.22 1011.22 1011.38 1011.62 1011.78 1012.02 1012.26 1012.34 1012.62 1012.94 1013.26 1013.54 1013.86 1014.10 1014.42 1014.78 1015.06 1015.14 1015.30 1015.54 1016.02 1016.38 1016.50 1016.82 1017.34 1017.86 1018.10 1018.22 1018.26 1018.42
1011.54 1011.46 1011.30 1011.30 1011.30 1011.30 1011.30 1011.30 1011.34 1011.30 1011.18 1011.26 1011.06 1010.98 1011.18 1011.18 1011.42 1011.66 1011.90 1012.10 1012.18 1012.22 1012.50 1012.90 1013.22 1013.54 1013.82 1014.10 1014.34 1014.62 1014.86 1015.14 1015.50 1015.78 1015.94 1016.22 1016.78 1017.10 1017.38 1017.62 1017.82 1018.06
1011.66 1011.42 1011.34 1011.30 1011.26 1011.18 1011.06 1011.02 1011.02 1010.94 1010.94 1010.90 1010.78 1010.82 1011.02 1011.06 1011.18 1011.42 1011.54 1011.74 1011.82 1011.82 1011.94 1012.22 1012.54 1012.94 1013.22 1013.46 1013.62 1013.78 1013.98 1014.34 1014.62 1014.90 1014.98 1015.34 1015.90 1016.06 1016.46 1016.94 1017.46 1017.54
1011.62 1011.46 1011.38 1011.26 1011.18 1011.02 1010.90 1010.82 1010.66 1010.54 1010.54 1010.46 1010.38 1010.46 1010.58 1010.78 1010.90 1010.98 1011.26 1011.38 1011.42 1011.54 1011.66 1011.78 1012.02 1012.30 1012.70 1012.94 1013.02 1013.18 1013.34 1013.54 1013.74 1014.02 1014.06 1014.26 1014.62 1015.10 1015.78 1016.18 1016.26 1016.82
1011.74 1011.50 1011.38 1011.18 1011.06 1010.82 1010.62 1010.42 1010.30 1010.18 1010.10 1010.02 1010.02 1009.98 1010.06 1010.30 1010.46 1010.66 1010.82 1010.90 1010.94 1011.02 1011.26 1011.38 1011.38 1011.58 1011.82 1012.18 1012.54 1012.78 1012.86 1013.06 1013.34 1013.46 1013.46 1013.46 1013.78 1014.10 1014.58 1015.06 1015.46 1015.54
1012.18 1011.70 1011.34 1011.06 1010.82 1010.54 1010.30 1010.06 1009.90 1009.82 1009.70 1009.58 1009.66 1009.58 1009.62 1009.74 1009.94 1010.22 1010.26 1010.26 1010.34 1010.46 1010.58 1010.74 1010.98 1011.18 1011.18 1011.22 1011.50 1011.94 1012.42 1012.66 1012.86 1013.10 1013.06 1013.06 1013.26 1013.54 1013.90 1014.14 1014.38 1014.82
1012.54 1012.22 1011.78 1011.26 1010.78 1010.42 1010.06 1009.78 1009.54 1009.34 1009.26 1009.22 1009.18 1009.14 1009.18 1009.38 1009.62 1009.78 1009.78 1009.86 1009.86 1010.02 1010.06 1010.26 1010.58 1010.82 1010.90 1011.02 1011.22 1011.38 1011.58 1011.90 1012.22 1012.58 1012.74 1012.74 1012.70 1012.82 1013.22 1013.70 1014.02 1014.46
1012.70 1012.42 1012.06 1011.66 1011.18 1010.62 1010.14 1009.66 1009.34 1009.10 1008.94 1008.82 1008.86 1008.90 1008.94 1009.02 1009.10 1009.22 1009.22 1009.38 1009.34 1009.54 1009.62 1009.90 1010.06 1010.14 1010.26 1010.46 1010.66 1010.90 1011.14 1011.30 1011.46 1011.78 1012.02 1012.14 1012.26 1012.54 1012.82 1013.14 1013.50 1013.86
1012.90 1012.42 1012.02 1011.62 1011.18 1010.70 1010.14 1009.70 1009.30 1008.98 1008.74 1008.58 1008.54 1008.54 1008.62 1008.62 1008.66 1008.78 1008.90 1008.98 1009.06 1009.18 1009.30 1009.46 1009.46 1009.34 1009.42 1009.70 1010.06 1010.46 1010.74 1010.94 1011.06 1011.22 1011.42 1011.58 1011.78 1012.06 1012.30 1012.62 1012.98 1013.30
1013.18 1012.86 1012.38 1011.86 1011.22 1010.70 1010.30 1009.90 1009.50 1009.10 1008.78 1008.54 1008.38 1008.26 1008.26 1008.34 1008.42 1008.46 1008.46 1008.42 1008.66 1008.86 1008.94 1008.90 1008.66 1008.58 1008.74 1009.14 1009.46 1009.66 1010.06 1010.38 1010.86 1011.14 1011.22 1011.26 1011.38 1011.66 1012.02 1012.26 1012.46 1012.82
1013.26 1012.98 1012.66 1012.30 1011.82 1011.30 1010.66 1010.10 1009.66 1009.30 1008.94 1008.58 1008.30 1008.18 1008.10 1008.10 1008.10 1008.02 1008.06 1008.18 1008.22 1008.22 1008.26 1008.18 1008.02 1007.98 1008.34 1008.82 1009.10 1009.34 1009.66 1009.98 1010.22 1010.54 1011.02 1011.18 1011.18 1011.26 1011.46 1011.82 1012.26 1012.70
1013.22 1012.94 1012.70 1012.38 1012.02 1011.66 1011.22 1010.66 1010.06 1009.46 1008.98 1008.62 1008.38 1008.14 1007.98 1007.90 1007.86 1007.78 1007.74 1007.78 1007.82 1007.82 1007.78 1007.58 1007.54 1007.62 1007.98 1008.18 1008.42 1008.82 1009.18 1009.50 1009.90 1010.14 1010.42 1010.70 1010.86 1011.06 1011.34 1011.78 1012.18 1012.58
1013.10 1012.74 1012.38 1012.06 1011.82 1011.54 1011.14 1010.66 1010.14 1009.66 1009.06 1008.62 1008.34 1008.10 1007.94 1007.86 1007.66 1007.54 1007.38 1007.38 1007.42 1007.34 1007.26 1007.18 1007.10 1007.02 1007.30 1007.54 1007.86 1008.22 1008.62 1009.14 1009.50 1009.70 1009.86 1009.94 1010.10 1010.42 1010.74 1011.18 1011.78 1012.34
1012.98 1012.66 1012.22 1011.82 1011.54 1011.30 1010.94 1010.50 1010.06 1009.58 1009.18 1008.82 1008.46 1008.14 1007.98 1007.70 1007.46 1007.26 1007.06 1006.98 1006.98 1006.94 1006.82 1006.66 1006.54 1006.54 1006.82 1007.06 1007.34 1007.66 1008.02 1008.46 1008.90 1009.18 1009.22 1009.18 1009.18 1009.30 1009.74 1010.22 1010.70 1011.34
1012.90 1012.58 1012.18 1011.74 1011.46 1011.22 1010.90 1010.50 1010.02 1009.50 1009.06 1008.66 1008.34 1008.06 1007.74 1007.42 1007.18 1006.98 1006.70 1006.58 1006.54 1006.58 1006.54 1006.30 1006.06 1006.26 1006.46 1006.54 1006.78 1007.10 1007.50 1007.94 1008.50 1008.86 1008.90 1008.78 1008.70 1008.74 1008.94 1009.26 1009.82 1010.46
1013.18 1012.62 1012.06 1011.62 1011.30 1011.02 1010.82 1010.42 1009.90 1009.46 1008.98 1008.42 1008.14 1007.78 1007.50 1007.22 1006.90 1006.70 1006.42 1006.22 1006.10 1006.14 1006.14 1005.90 1005.82 1005.98 1006.06 1006.18 1006.42 1006.70 1007.14 1007.58 1007.94 1008.34 1008.50 1008.54 1008.54 1008.58 1008.74 1009.06 1009.58 1010.10
1013.62 1013.06 1012.14 1011.54 1011.26 1011.06 1010.78 1010.38 1009.90 1009.38 1008.94 1008.54 1008.18 1007.74 1007.38 1007.02 1006.66 1006.34 1006.06 1005.98 1005.82 1005.82 1005.82 1005.62 1005.58 1005.66 1005.74 1005.82 1005.98 1006.26 1006.74 1007.06 1007.42 1007.78 1007.98 1008.06 1007.98 1008.06 1008.30 1008.66 1009.10 1009.54
1013.94 1013.26 1012.30 1011.70 1011.54 1011.30 1010.86 1010.38 1009.94 1009.46 1009.06 1008.62 1008.34 1007.66 1007.18 1006.70 1006.38 1006.10 1005.86 1005.70 1005.58 1005.42 1005.30 1005.26 1005.14 1005.34 1005.50 1005.54 1005.70 1005.90 1006.06 1006.50 1006.86 1007.22 1007.38 1007.62 1007.82 1008.10 1008.42 1008.74 1009.02 1009.30
1013.90 1013.14 1012.46 1012.06 1011.70 1011.26 1010.90 1010.34 1009.74 1009.34 1008.82 1008.54 1008.18 1007.62 1007.02 1006.42 1006.06 1005.78 1005.46 1005.26 1005.14 1005.06 1004.94 1004.90 1004.82 1005.06 1005.30 1005.38 1005.46 1005.58 1005.78 1006.02 1006.38 1006.78 1007.02 1007.18 1007.54 1008.06 1008.38 1008.70 1009.06 1009.22
1013.70 1013.10 1012.46 1012.22 1011.86 1011.38 1010.98 1010.42 1009.58 1008.86 1008.34 1007.98 1007.54 1007.14 1006.54 1005.98 1005.70 1005.42 1005.14 1004.78 1004.62 1004.66 1004.66 1004.54 1004.50 1004.62 1004.98 1005.10 1005.06 1005.14 1005.22 1005.50 1005.86 1006.26 1006.42 1006.90 1007.62 1008.06 1008.42 1008.74 1008.82 1009.02
Thickness
5597 5597 5596 5595 5595 5596 5596 5596 5596 5597 5596 5595 5594 5594 5592 5589 5586 5583 5581 5580 5578 5576 5575 5574 5573 5572 5570 5568 5564 5560 5557 5554 5552 5548 5545 5543 5541 5539 5538 5536 5535 5534
5588 5587 5585 5585 5585 5584 5584 5584 5584 5586 5586 5587 5587 5586 5584 5582 5579 5578 5577 5575 5572 5571 5568 5566 5565 5565 5564 5563 5561 5558 5555 5551 5548 5546 5543 5541 5539 5537 5535 5533 5530 5528
5581 5580 5578 5577 5577 5576 5575 5574 5574 5575 5575 5576 5577 5576 5576 5575 5573 5572 5570 5569 5568 5565 5562 5560 5558 5557 5556 5555 5554 5553 5551 5550 5547 5544 5541 5539 5537 5534 5532 5528 5526 5523
5574 5573 5572 5571 5570 5569 5568 5567 5566 5566 5566 5566 5566 5566 5566 5566 5566 5564 5563 5562 5561 5559 5556 5554 5552 5550 5549 5547 5546 5546 5545 5545 5543 5540 5537 5536 5534 5531 5528 5525 5521 5519
5566 5565 5564 5564 5564 5563 5562 5562 5561 5560 5560 5560 5559 5558 5558 5558 5558 5557 5556 5554 5553 5552 5551 5549 5546 5544 5542 5541 5540 5540 5538 5537 5535 5533 5532 5531 5528 5526 5523 5520 5518 5514
5557 5557 5557 5557 5557 5557 5556 5556 5555 5554 5555 5555 5555 5554 5552 5551 5550 5550 5549 5549 5547 5546 5545 5544 5542 5540 5538 5535 5533 5533 5533 5532 5529 5527 5526 5525 5522 5519 5517 5515 5514 5511
5547 5549 5550 5550 5550 5550 5551 5550 5549 5549 5549 5549 5550 5549 5547 5546 5545 5544 5543 5543 5542 5542 5541 5540 5538 5537 5534 5532 5530 5530 5529 5527 5525 5523 5522 5520 5516 5513 5512 5510 5508 5506
5537 5539 5540 5541 5542 5542 5543 5543 5543 5543 5543 5543 5545 5545 5544 5544 5542 5540 5538 5536 5537 5537 5537 5535 5534 5533 5531 5529 5528 5527 5526 5524 5522 5520 5518 5516 5513 5511 5509 5506 5503 5501
5527 5529 5530 5531 5532 5533 5535 5535 5536 5536 5537 5538 5540 5540 5540 5539 5538 5537 5535 5533 5533 5533 5533 5532 5531 5529 5527 5526 5526 5524 5523 5522 5519 5518 5517 5515 5513 5511 5506 5502 5500 5498
5517 5519 5520 5521 5523 5524 5526 5527 5529 5530 5531 5532 5533 5534 5534 5534 5533 5533 5531 5530 5529 5529 5528 5528 5527 5525 5522 5521 5521 5519 5519 5518 5516 5515 5515 5514 5513 5510 5505 5501 5499 5497
5506 5509 5511 5512 5515 5517 5518 5520 5521 5522 5524 5525 5526 5527 5528 5527 5527 5526 5525 5525 5524 5523 5522 5522 5521 5520 5519 5518 5516 5514 5512 5511 5511 5510 5510 5511 5509 5506 5503 5501 5499 5497
5493 5497 5501 5504 5507 5509 5512 5513 5514 5515 5517 5518 5518 5519 5521 5520 5519 5519 5518 5519 5518 5517 5516 5516 5514 5512 5512 5513 5512 5509 5507 5505 5504 5504 5503 5504 5502 5501 5500 5498 5497 5494
5478 5482 5486 5491 5495 5499 5502 5505 5507 5509 5510 5511 5510 5511 5512 5512 5511 5511 5511 5511 5511 5510 5510 5509 5507 5505 5505 5506 5505 5504 5502 5501 5499 5497 5496 5496 5496 5495 5494 5492 5490 5487
5464 5467 5471 5475 5481 5485 5490 5494 5498 5500 5502 5503 5504 5504 5503 5502 5502 5503 5503 5504 5504 5504 5504 5502 5500 5501 5501 5500 5499 5498 5496 5495 5494 5493 5491 5490 5490 5488 5487 5486 5484 5481
5449 5452 5456 5461 5466 5472 5477 5481 5486 5489 5491 5494 5494 5495 5496 5495 5495 5494 5494 5496 5497 5496 5495 5495 5496 5498 5499 5497 5494 5492 5490 5488 5487 5486 5485 5485 5483 5482 5481 5480 5479 5476
5434 5437 5441 5446 5452 5458 5463 5467 5472 5476 5479 5482 5484 5486 5487 5486 5486 5486 5487 5488 5488 5487 5487 5488 5492 5495 5494 5491 5489 5487 5485 5483 5480 5479 5478 5477 5477 5477 5477 5476 5474 5472
5420 5424 5426 5430 5435 5441 5446 5452 5457 5461 5465 5469 5472 5475 5476 5476 5477 5478 5479 5479 5478 5480 5481 5483 5487 5489 5486 5483 5482 5481 5478 5476 5475 5472 5470 5469 5471 5472 5472 5471 5468 5465
5407 5411 5413 5416 5420 5425 5430 5436 5442 5447 5452 5455 5459 5462 5464 5466 5467 5468 5470 5470 5470 5472 5475 5477 5480 5481 5479 5477 5476 5474 5471 5468 5467 5466 5464 5463 5464 5465 5465 5464 5461 5459
5396 5399 5403 5406 5409 5412 5416 5422 5427 5433 5438 5441 5446 5449 5452 5455 5457 5459 5461 5461 5462 5464 5467 5470 5473 5474 5473 5471 5469 5467 5464 5461 5458 5458 5459 5458 5459 5460 5459 5458 5456 5452
5384 5388 5392 5395 5398 5401 5405 5410 5414 5419 5424 5428 5432 5436 5439 5443 5446 5449 5452 5453 5454 5456 5458 5462 5465 5466 5464 5463 5462 5460 5457 5454 5451 5449 5451 5454 5456 5457 5457 5456 5455 5450
5368 5373 5379 5383 5385 5389 5392 5397 5402 5407 5411 5415 5419 5423 5426 5431 5434 5438 5441 5444 5445 5446 5448 5453 5456 5455 5454 5454 5453 5452 5449 5446 5442 5441 5443 5446 5449 5451 5453 5453 5450 5446
5349 5355 5362 5368 5372 5376 5379 5383 5389 5394 5398 5402 5406 5411 5415 5419 5422 5426 5430 5433 5435 5435 5437 5442 5446 5444 5443 5445 5444 5442 5439 5436 5433 5432 5434 5437 5441 5443 5445 5444 5442 5439
5330 5335 5343 5349 5355 5359 5364 5369 5374 5379 5384 5388 5392 5399 5403 5406 5411 5415 5419 5421 5423 5426 5428 5432 5435 5435 5434 5436 5435 5433 5430 5427 5426 5425 5425 5429 5432 5434 5435 5435 5434 5432
5312 5318 5326 5330 5334 5338 5345 5352 5359 5364 5369 5372 5377 5384 5391 5396 5400 5404 5408 5411 5413 5416 5418 5422 5426 5425 5425 5426 5426 5424 5422 5420 5419 5417 5418 5422 5424 5424 5425 5424 5423 5423
5298 5303 5309 5314 5317 5322 5327 5334 5342 5349 5355 5359 5363 5370 5378 5385 5389 5394 5399 5403 5404 5407 5409 5412 5416 5415 5414 5415 5416 5415 5414 5413 5411 5410 5412 5414 5414 5414 5414 5413 5413 5412
5284 5287 5293 5297 5301 5306 5311 5317 5325 5333 5341 5346 5351 5358 5365 5373 5379 5383 5388 5394 5396 5398 5399 5401 5405 5406 5405 5405 5405 5405 5405 5404 5403 5404 5407 5406 5404 5404 5403 5402 5402 5403